sat.trackr.live / text

‹ back to catalog

STARLINK-33648

NORAD 63371 · 2025-063J

PAYLOAD ACTIVE UNKNOWN

§ Identity

Operator
Country
US
Launch date
2025-03-26
Launch site
AFWTR
Launch vehicle
Mass (kg)
RCS (m²)

Purposes: comms

External: N2YO · Heavens-Above · Gunter

§ Orbital elements

Epoch: 2026-05-25T03:38:25.833696Z

Period
94.10 min
Inclination
53.1600°
Eccentricity
0.0001046
Mean motion
15.30206312 rev/d
Perigee alt
474.5 km
Apogee alt
475.9 km
Semi-major
6,853.3 km
B*
4.8579e-4
RAAN
57.4808°
Arg perigee
87.7423°
Mean anomaly
272.3698°
Rev number
6,646

§ Raw data

STARLINK-336481 63371U 25063J   26145.15168789  .00014059  00000+0  48579-3 0  99932 63371  53.1600  57.4808 0001046  87.7423 272.3698 15.30206312 66463

JSON: /api/v1/satellites/63371 · /tle

For live sub-satellite position, see the globe view (requires WebGL).

§ Visibility from observer

Set your observer location to see the next 7 days of passes ≥ 10°. The values pass through the URL so the page stays shareable.

No JS? Fill the form by hand. The geolocation button needs JavaScript.